Погода в Бирзаи

Погода в Бирзаи : погода сейчас, прогноз погоды и архив. Всё, что Вы хотите узнать о погоде в Бирзаи!

Поиск расширенной информации на нашем сайте:

Другие новости

Новости СМИ2

Главная страница сайта

Новости сайта

03.07.2017

Напоминаем, что на нашем специализированном сайте Метеоцентр.Азия вы можете получить высокодетализированные автоматические прогнозы погоды по пунктам России, СНГ и мира в авиационном формате (включающие направление и скорость ветра, видимость, явления погоды, количество и форму облачности, нижнюю и верхнюю границу облачности).


Погода в Бирзаи - сегодня

Время (UTC), дата Ветер
(°,м/с) 
Видим.   Явления Облачность Т
(°С)
Тd
(°С)
f(%) Тe
(°С)
Pmin
(гПа)
dP
(гПа)
Po
(мм)
O2
(г/м3)
Тmin Tmax R s Состояние
почвы
18 11.11.18 120 (ЮВ) 7-11{12}  9000 м  дымка  10/10 300 м 
[St]
+4.7 +3 89 +2  1024.4  0.1  763  302    +5.5       
21 11.11.18 140 (ЮВ) 6-10{11}  8000 м  дымка  10/10 300 м 
[St]
+4.4 +2.3 86 +2  1025.1  0.7  763  302           
00 12.11.18 140 (ЮВ) 6-10{10}  8000 м  дымка  10/10 300 м 
[St]
+3.9 +2.3 89 +1  1025.4  0.3  763  303           
03 12.11.18 150 (ЮВ) 5-10{10}  8000 м  дымка  ясно 300 м 
+3.6 +2.1 90 +1  1026  0.5  764  303           
06 12.11.18 150 (ЮВ) 4-8{12}  5000 м  слаб. морось  10/10 200 м 
[St]
+3.2 +2.1 92 +1  1026.5  0.5  764  304      0.0    влажная 
09 12.11.18 160 (Ю) 5-10{10}  5000 м  дымка{морось}  10/10 300 м 
[St]
+3.4 +1.8 89 +1  1027.3  0.8  765  304           
12 12.11.18 170 (Ю) 4-7{10}  4400 м  слаб. дождь{морось}  10/10 200 м 
[Frnb|Ns]
+3.7 +2.4 91 +2  1027  -0.3  764  304      0.4     
15 12.11.18 170 (Ю) 4-8{09}  5000 м  слаб. дождь  10/10 300 м 
[Frnb|Ns]
+3.9 +2.6 91 +2  1026.6  -0.4  764  303           
18 12.11.18 160 (Ю) 4-8{10}  3800 м  дымка{дождь}  10/10 300 м 
[St]
+3.7 +2.4 91 +2  1026.4  -0.2  764  303    +3.7     
21 12.11.18 160 (Ю) 5-10{10}  2700 м  слаб. дождь  10/10 200 м 
[Frnb|Ns]
+3.6 +2.8 94 +1  1025.6  -0.8  763  303           
00 13.11.18 160 (Ю) 5-9{11}  3400 м  слаб. дождь  10/10 200 м 
[Frnb|Ns]
+3.9 +3 94 +2  1024.4  -1.1  763  302      0.8     
03 13.11.18 170 (Ю) 4-9{11}  3400 м  дымка{дождь}  10/10 300 м 
[St]
+4.6 +3.6 93 +3  1022.8  -1.6  761  301           
06 13.11.18 180 (Ю) 6-11{13}  3600 м  дымка{дождь}  10/10 300 м 
[St]
+5.1 +4 93 +3  1021.6  -1.2  760  300  +3.5    0.8    влажная 
09 13.11.18 180 (Ю) 5-9{11}  3100 м  слаб. дождь  10/10 200 м 
[Frnb|Ns]
+5.5 +4.8 95 +3  1021.1  -0.5  760  299           
12 13.11.18 190 (Ю) 4-9{11}  3200 м  слаб. дождь  10/10 200 м 
[Frnb]
+5.8 +5.2 96 +4  1020.4  -0.7  760  299         
15 13.11.18 190 (Ю) 4-7{09}  2200 м  слаб. дождь  10/10 200 м 
[Frnb|Ns]
+5.9 +5.2 95 +4  1019  -1.3  759  298           
18 13.11.18 180 (Ю) 3-6{08}  2000 м  слаб. дождь  10/10 200 м 
[Frnb|Ns]
+5.7 +5.2 97 +5  1018.1  -0.9  758  298    +6     
21 13.11.18 190 (Ю) 1-2{06}  3200 м  слаб. дождь  10/10 300 м 
[Frnb|Ns]
+5.8 +5.4 97 +7  1017  -1.1  757  298           
00 14.11.18 270 (З) 1-3{03}  2100 м  слаб. дождь  10/10 200 м 
[Frnb|Ns]
+6.5 +6.2 98 +7  1016.1  -0.9  756  297         
03 14.11.18 320 (СЗ) 3-7{07}  2300 м  слаб. дождь  10/10 200 м 
[Frnb|Ns]
+6.9 +6.6 98 +6  1017  0.9  757  296           
06 14.11.18 330 (СЗ) 1-3{07}  7000 м  дымка{дождь}  10/10 300 м 
[St]
+6.3 +5.9 97 +7  1018.5  1.5  758  298  +5.7    10    мокрая 
09 14.11.18 320 (СЗ) 2-4{04}  9000 м  дымка  10/10 300 м 
[Sc]
+6.9 +6.5 97 +7  1020.1  1.6  759  297           
12 14.11.18 350 (С) 1-4{06}  19000 м  в посл. час ливневой дождь  10/10 300 м кучево-дожд. 
[Cb calv]
+7.7 +6.5 92 +9  1021.6  1.5  761  297      0.0     
15 14.11.18 тихо () -2{04}  2900 м  дым{ливн. осадки}  10/10 1500 м 
[Sc]
+7.2 +6.3 94 +7  1023.5  1.9  762  298           
18 14.11.18 310 (СЗ) 2-3{03}  3600 м  в посл. час ливневой дождь  10/10 1500 м 
[Sc]
+6.7 +6.3 97 +7  1024.7  1.1  763  299    +7.9  0.0     
Время (UTC), дата Ветер
(°,м/с) 
Видим.   Явления Облачность Т
(°С)
Тd
(°С)
f(%) Тe
(°С)
Pmin
(гПа)
dP
(гПа)
Po
(мм)
O2
(г/м3)
Тmin Tmax R s Состояние
почвы

Для получения пояснительной информации подведите курсор к названию столбца.

ПОГОДА в Бирзаи - архив

Всё, что Вы хотите узнать о погоде в Бирзаи - удобно и подробно!

Выберите нужную дату (начиная с 1 января 2015* года) и нажмите кнопку "Найти".
Будут отображены архивные сводки погоды по пункту Бирзаи, начиная с указанной даты.


Отображать данные в формате CSV (для использования в таблицах Excel)


Внимание! Наш архив погоды предназначен исключительно для личного некоммерческого использования в познавательных целях. Если Вам необходимы официальные справки о состоянии погоды (для производственных, юридических, коммерческих и т.п. целей), обращайтесь в органы Росгидромета.

*Примечание: данная дата относится к архиву по метеостанциям СССР (Россия, СНГ, Балтия).
Архив по метеостанциям Зарубежной Европы и Азии (кроме Китая) хранится 10 дней, по другим регионам земного шара (Китай, Африка, Америка, Австралия, Океания) - 1 день.

Бирзаи - район местоположения метеостанции


Название, широта, долгота, высота метеостанции:
Бирзаи 56.2°ш. 24.8°д. 62 м над ур. моря [Литва]

Дополнительная информация

В oтличие oт бoльшинства пoгoдных сайтoв мы публикуем пoдрoбную метеoинфoрмацию в детальнoм прoфессиoнальнoм фoрмате.

Характеристики температуры и влажнoсти вoздуха измеряются на высoте 2 м в тени вдали oт зданий и деревьев.
Скoрoсть ветра измеряется на высoте 10 м (на урoвне рoста челoвека скoрoсть ветра ниже в 1.5-2 раза). Если метеoстанция нахoдится в гoрoде или в лесу, тo скoрoсть ветра занижена на 2-4 м/с пo сравнению с oткрытым местoм. Скoрoсть ветра над акватoриями крупных рек и oзёр, а также на вершинах хoлмoв на 2-5 м/с выше, чем в oбычных услoвиях.
Атмoсфернoе давление в разных тoчках местнoсти мoжет значительнo oтличаться oт давления на метеoстанции, в зависимoсти oт услoвий рельефа (при пoдъёме на 10 м давление пoнижается примернo на 1 мм рт.ст.).